User: anonymous   Login
Location: Pella
(41.4080°N, 92.9160°W)
Time: 08:04:18
(UTC-05:00)
Language:

Iridium 91 - Orbit

View from above orbital plane
View from above orbital plane
View from above satellite
View from above satellite

Ground track
Ground track

The orbit data is extracted from the following two-line orbital elements,

1 27372U 02005A   15115.53425253  .00001013  00000-0  35483-3 0  9991
2 27372 086.3966 255.2560 0001563 090.2890 358.2283 14.34209581699304
Epoch (UTC): 25 April 2015 12:49:19
Eccentricity: 0.0001563
inclination: 86.3966°
perigee height: 776 km
apogee height: 779 km
right ascension of ascending node: 255.2560°
argument of perigee: 90.2890°
revolutions per day: 14.34209581
mean anomaly at epoch: 358.2283°
orbit number at epoch: 69930

The dashed part of the orbit path shows where the satellite is in the earth's shadow,  

DLR